Great Falls, MT

10:50 PM MDT on June 26, 2017 (GMT -0600)
Great Falls International

Weather History for KGTF - April, 2014

Change the Weather History Date:

Tuesday, April 29, 2014

  Actual Average Record
Temperature  
Mean Temperature 46 °F 47 °F  
Max Temperature 61 °F 60 °F 87 °F (1939)
Min Temperature 31 °F 34 °F 14 °F (1954)
Degree Days  
Heating Degree Days 19 18  
Month to date heating degree days 628 641  
Since 1 July heating degree days 7366 7099  
Cooling Degree Days 0 0  
Month to date cooling degree days 0 0  
Year to date cooling degree days 0 0  
Moisture  
Dew Point 21 °F    
Average Humidity 44    
Maximum Humidity 69    
Minimum Humidity 18    
Precipitation  
Precipitation 0.00 in 0.05 in 1.02 in (2010)
Month to date precipitation 1.76 1.37  
Year to date precipitation 5.49 3.26  
Snow  
Snow 0.00 in 0.20 in 16.10 in (2009)
Month to date snowfall 2.4 8.4  
Since 1 July snowfall 72.7 60.3  
Snow Depth 0.00 in    
Sea Level Pressure  
Sea Level Pressure 30.52 in    
Wind  
Wind Speed 12 mph (NW)    
Max Wind Speed 22 mph    
Max Gust Speed 29 mph    
Visibility 10 miles    
Events      
T = Trace of Precipitation, MM = Missing Value Source: NWS Daily Summary

Daily Weather History Graph

Daily Weather History Graph

Search for Another Location

Airport or City:

Trip Planner

Search our weather history database for the weather conditions in past years. The results will help you decide how hot, cold, wet, or windy it might be!

Date:

Astronomy

Apr. 29, 2014 Rise Set
Actual Time 6:11 AM MDT 8:34 PM MDT
Civil Twilight 5:37 AM MDT 9:08 PM MDT
Nautical Twilight 4:55 AM MDT 9:51 PM MDT
Astronomical Twilight 4:06 AM MDT 10:40 PM MDT
Moon 6:33 AM MDT (4/29) 9:19 PM MDT (4/29)
Length of Visible Light 15h 30m
Length of Day
14h 22m
New Moon, 0% of the Moon is Illuminated
Apr 29
New Moon
May 6
First Quarter
May 14
Full
May 21
Last Quarter
May 28
New

Hourly Weather History & Observations

Time (MDT) Temp. Windchill Dew Point Humidity Pressure Visibility Wind Dir Wind Speed Gust Speed Precip Events Conditions
12:53 AM 34.0 °F 28.0 °F 24.1 °F 67% 30.40 in 10.0 mi SW 6.9 mph - N/A   Mostly Cloudy
1:53 AM 37.0 °F 29.8 °F 23.0 °F 57% 30.42 in 10.0 mi West 10.4 mph - N/A   Overcast
2:53 AM 36.0 °F 29.0 °F 23.0 °F 59% 30.43 in 10.0 mi WSW 9.2 mph - N/A   Scattered Clouds
3:53 AM 32.0 °F 23.6 °F 23.0 °F 69% 30.47 in 10.0 mi WSW 10.4 mph - N/A   Clear
4:53 AM 34.0 °F 25.5 °F 23.0 °F 64% 30.48 in 10.0 mi WSW 11.5 mph - N/A   Clear
5:53 AM 36.0 °F 29.6 °F 25.0 °F 64% 30.48 in 10.0 mi WSW 8.1 mph - N/A   Overcast
6:53 AM 37.4 °F 30.3 °F 24.8 °F 60% 30.45 in 10.0 mi WSW 10.4 mph - N/A   Overcast
7:53 AM 39.9 °F 33.4 °F 25.0 °F 55% 30.55 in 10.0 mi West 10.4 mph - N/A   Overcast
8:53 AM 44.6 °F 38.8 °F 26.6 °F 49% 30.50 in 10.0 mi WNW 11.5 mph - N/A   Partly Cloudy
9:53 AM 51.1 °F - 25.0 °F 36% 30.56 in 10.0 mi NNW 17.3 mph 24.2 mph N/A   Clear
10:53 AM 54.0 °F - 25.0 °F 33% 30.56 in 10.0 mi North 16.1 mph - N/A   Clear
11:53 AM 54.0 °F - 21.0 °F 28% 30.57 in 10.0 mi NNE 17.3 mph 24.2 mph N/A   Mostly Cloudy
12:53 PM 54.0 °F - 21.0 °F 28% 30.58 in 10.0 mi NNW 17.3 mph 25.3 mph N/A   Mostly Cloudy
1:53 PM 55.9 °F - 21.0 °F 26% 30.56 in 10.0 mi North 13.8 mph - N/A   Mostly Cloudy
2:53 PM 57.2 °F - 19.4 °F 23% 30.51 in 10.0 mi North 17.3 mph 24.2 mph N/A   Mostly Cloudy
3:53 PM 57.2 °F - 17.6 °F 21% 30.50 in 10.0 mi NNW 15.0 mph 25.3 mph N/A   Scattered Clouds
4:53 PM 59.0 °F - 17.1 °F 20% 30.56 in 10.0 mi North 18.4 mph 23.0 mph N/A   Scattered Clouds
5:53 PM 59.0 °F - 15.1 °F 18% 30.55 in 10.0 mi North 18.4 mph - N/A   Partly Cloudy
6:53 PM 57.0 °F - 16.0 °F 20% 30.55 in 10.0 mi North 15.0 mph - N/A   Partly Cloudy
7:53 PM 53.1 °F - 18.0 °F 25% 30.55 in 10.0 mi North 10.4 mph - N/A   Clear
8:53 PM 45.0 °F 41.8 °F 19.9 °F 37% 30.56 in 10.0 mi North 5.8 mph - N/A   Clear
9:53 PM 43.0 °F 39.5 °F 19.0 °F 38% 30.56 in 10.0 mi North 5.8 mph - N/A   Clear
10:53 PM 41.0 °F 36.4 °F 19.9 °F 43% 30.56 in 10.0 mi NNE 6.9 mph - N/A   Clear
11:53 PM 41.0 °F - 19.0 °F 41% 30.56 in 10.0 mi Calm Calm - N/A   Clear